contact:dominique.lefevre@mio.osupytheas.fr, maurice.libes@osupytheas.fr, didier.mallarino@osupytheas.fr
Project:EMSO http://www.emso-fr.org/EMSO-France
Depth: 2436.0 m
Title:EMSO Ligure Ouest : Data MII capteur CSTAR
DateTime,Latitude,Longitude,Instrument_Serial,Reference_Counts,Signal_Counts,Corrected_Signal_raw_counts,Calculated_Beam_c_inverse_meters,Internal_thermistor_counts
DateTime,Latitude,Longitude,Instrument_Serial,Reference_Counts,Signal_Counts,Corrected_Signal_raw_counts,Calculated_Beam_c_inverse_meters,Internal_thermistor_counts
2022-02-03T00:01:10,42.805,6.029,CST-1368DR,4934,6193,13406,0.610,551
2022-02-03T00:04:12,42.805,6.029,CST-1368DR,4934,6192,13404,0.611,551
2022-02-03T00:07:13,42.805,6.029,CST-1368DR,4934,6191,13402,0.612,551
2022-02-03T00:10:15,42.805,6.029,CST-1368DR,4934,6191,13401,0.612,551
2022-02-03T00:13:16,42.805,6.029,CST-1368DR,4934,6190,13401,0.612,551
2022-02-03T00:16:18,42.805,6.029,CST-1368DR,4934,6191,13403,0.611,551
2022-02-03T00:19:20,42.805,6.029,CST-1368DR,4934,6193,13406,0.610,551
2022-02-03T00:22:21,42.805,6.029,CST-1368DR,4934,6192,13403,0.611,551
2022-02-03T00:25:23,42.805,6.029,CST-1368DR,4934,6192,13404,0.611,551
2022-02-03T00:28:24,42.805,6.029,CST-1368DR,4934,6191,13402,0.612,551
2022-02-03T00:31:26,42.805,6.029,CST-1368DR,4934,6191,13402,0.612,551
2022-02-03T00:34:28,42.805,6.029,CST-1368DR,4934,6190,13399,0.612,551
2022-02-03T00:37:29,42.805,6.029,CST-1368DR,4934,6190,13401,0.612,551
2022-02-03T00:40:31,42.805,6.029,CST-1368DR,4933,6191,13404,0.611,551
2022-02-03T00:43:32,42.805,6.029,CST-1368DR,4934,6191,13401,0.612,551
2022-02-03T00:46:34,42.805,6.029,CST-1368DR,4934,6190,13399,0.612,551
2022-02-03T00:49:35,42.805,6.029,CST-1368DR,4933,6191,13405,0.611,551
2022-02-03T00:52:37,42.805,6.029,CST-1368DR,4934,6190,13399,0.612,551
2022-02-03T00:55:39,42.805,6.029,CST-1368DR,4933,6189,13400,0.612,551
2022-02-03T00:58:40,42.805,6.029,CST-1368DR,4933,6190,13403,0.611,551
2022-02-03T01:01:42,42.805,6.029,CST-1368DR,4933,6188,13398,0.613,551
2022-02-03T01:04:43,42.805,6.029,CST-1368DR,4933,6189,13399,0.612,551
2022-02-03T01:07:45,42.805,6.029,CST-1368DR,4933,6189,13401,0.612,551
2022-02-03T01:10:47,42.805,6.029,CST-1368DR,4933,6189,13399,0.612,551
2022-02-03T01:13:48,42.805,6.029,CST-1368DR,4933,6187,13397,0.613,551
2022-02-03T01:16:50,42.805,6.029,CST-1368DR,4933,6188,13397,0.613,551
2022-02-03T01:19:51,42.805,6.029,CST-1368DR,4933,6188,13398,0.613,551
2022-02-03T01:22:53,42.805,6.029,CST-1368DR,4933,6188,13398,0.613,551
2022-02-03T01:25:54,42.805,6.029,CST-1368DR,4933,6187,13397,0.613,551
2022-02-03T01:28:56,42.805,6.029,CST-1368DR,4933,6188,13398,0.613,551
2022-02-03T01:31:58,42.805,6.029,CST-1368DR,4933,6188,13397,0.613,551
2022-02-03T01:34:59,42.805,6.029,CST-1368DR,4933,6188,13398,0.613,551
2022-02-03T01:38:01,42.805,6.029,CST-1368DR,4933,6187,13397,0.613,551
2022-02-03T01:41:02,42.805,6.029,CST-1368DR,4933,6187,13396,0.613,551
2022-02-03T01:44:04,42.805,6.029,CST-1368DR,4933,6187,13397,0.613,551
2022-02-03T01:47:06,42.805,6.029,CST-1368DR,4933,6187,13395,0.614,551
2022-02-03T01:50:07,42.805,6.029,CST-1368DR,4933,6186,13394,0.614,551
2022-02-03T01:53:09,42.805,6.029,CST-1368DR,4933,6187,13395,0.614,551
2022-02-03T01:56:10,42.805,6.029,CST-1368DR,4933,6188,13397,0.613,551
2022-02-03T01:59:12,42.805,6.029,CST-1368DR,4933,6187,13396,0.613,551
2022-02-03T02:02:13,42.805,6.029,CST-1368DR,4933,6188,13398,0.613,551
2022-02-03T02:05:15,42.805,6.029,CST-1368DR,4933,6184,13390,0.615,551
2022-02-03T02:08:17,42.805,6.029,CST-1368DR,4933,6186,13394,0.614,551
2022-02-03T02:11:18,42.805,6.029,CST-1368DR,4933,6184,13389,0.615,551
2022-02-03T02:14:20,42.805,6.029,CST-1368DR,4933,6187,13396,0.613,551
2022-02-03T02:17:21,42.805,6.029,CST-1368DR,4933,6187,13397,0.613,551
2022-02-03T02:20:23,42.805,6.029,CST-1368DR,4933,6185,13392,0.615,550
2022-02-03T02:23:24,42.805,6.029,CST-1368DR,4933,6187,13395,0.614,551
2022-02-03T02:26:26,42.805,6.029,CST-1368DR,4933,6185,13391,0.615,551
2022-02-03T02:29:28,42.805,6.029,CST-1368DR,4933,6187,13395,0.614,551
2022-02-03T02:32:29,42.805,6.029,CST-1368DR,4933,6184,13389,0.615,551
2022-02-03T02:35:31,42.805,6.029,CST-1368DR,4933,6185,13392,0.615,551
2022-02-03T02:38:32,42.805,6.029,CST-1368DR,4933,6185,13392,0.615,551
2022-02-03T02:41:34,42.805,6.029,CST-1368DR,4933,6185,13391,0.615,551
2022-02-03T02:44:36,42.805,6.029,CST-1368DR,4933,6186,13394,0.614,551
2022-02-03T02:47:37,42.805,6.029,CST-1368DR,4933,6185,13392,0.615,551
2022-02-03T02:50:39,42.805,6.029,CST-1368DR,4933,6186,13393,0.614,551
2022-02-03T02:53:40,42.805,6.029,CST-1368DR,4933,6185,13391,0.615,551
2022-02-03T02:56:42,42.805,6.029,CST-1368DR,4933,6185,13392,0.615,551
2022-02-03T02:59:43,42.805,6.029,CST-1368DR,4933,6184,13390,0.615,551
2022-02-03T03:02:45,42.805,6.029,CST-1368DR,4933,6182,13385,0.617,551
2022-02-03T03:05:47,42.805,6.029,CST-1368DR,4933,6185,13392,0.615,551
2022-02-03T03:08:48,42.805,6.029,CST-1368DR,4933,6184,13389,0.615,551
2022-02-03T03:11:50,42.805,6.029,CST-1368DR,4933,6184,13390,0.615,551
2022-02-03T03:14:51,42.805,6.029,CST-1368DR,4933,6184,13389,0.615,551
2022-02-03T03:17:53,42.805,6.029,CST-1368DR,4933,6184,13389,0.615,551
2022-02-03T03:20:54,42.805,6.029,CST-1368DR,4933,6183,13387,0.616,551
2022-02-03T03:23:56,42.805,6.029,CST-1368DR,4933,6184,13390,0.615,551
2022-02-03T03:26:58,42.805,6.029,CST-1368DR,4933,6181,13382,0.618,551
2022-02-03T03:29:59,42.805,6.029,CST-1368DR,4933,6185,13392,0.615,551
2022-02-03T03:33:01,42.805,6.029,CST-1368DR,4933,6185,13391,0.615,551
2022-02-03T03:36:02,42.805,6.029,CST-1368DR,4933,6182,13384,0.617,551
2022-02-03T03:39:04,42.805,6.029,CST-1368DR,4933,6184,13389,0.615,551
2022-02-03T03:42:06,42.805,6.029,CST-1368DR,4933,6184,13390,0.615,551
2022-02-03T03:45:07,42.805,6.029,CST-1368DR,4933,6184,13389,0.615,551
2022-02-03T03:48:09,42.805,6.029,CST-1368DR,4933,6184,13389,0.615,551
2022-02-03T03:51:10,42.805,6.029,CST-1368DR,4933,6185,13391,0.615,551
2022-02-03T03:54:12,42.805,6.029,CST-1368DR,4933,6186,13394,0.614,551
2022-02-03T03:57:13,42.805,6.029,CST-1368DR,4933,6183,13387,0.616,551
2022-02-03T04:00:15,42.805,6.029,CST-1368DR,4933,6183,13387,0.616,551
2022-02-03T04:03:17,42.805,6.029,CST-1368DR,4932,6184,13391,0.615,551
2022-02-03T04:06:18,42.805,6.029,CST-1368DR,4932,6185,13395,0.614,551
2022-02-03T04:09:20,42.805,6.029,CST-1368DR,4932,6185,13394,0.614,550
2022-02-03T04:12:21,42.805,6.029,CST-1368DR,4932,6181,13385,0.617,551
2022-02-03T04:15:23,42.805,6.029,CST-1368DR,4932,6186,13395,0.614,551
2022-02-03T04:18:25,42.805,6.029,CST-1368DR,4932,6184,13392,0.615,551
2022-02-03T04:21:26,42.805,6.029,CST-1368DR,4932,6185,13394,0.614,551
2022-02-03T04:24:28,42.805,6.029,CST-1368DR,4932,6182,13387,0.616,551
2022-02-03T04:27:29,42.805,6.029,CST-1368DR,4932,6184,13392,0.615,551
2022-02-03T04:30:31,42.805,6.029,CST-1368DR,4932,6186,13395,0.614,551
2022-02-03T04:33:32,42.805,6.029,CST-1368DR,4932,6183,13390,0.615,551
2022-02-03T04:36:34,42.805,6.029,CST-1368DR,4933,6183,13387,0.616,551
2022-02-03T04:39:36,42.805,6.029,CST-1368DR,4933,6178,13377,0.619,551
2022-02-03T04:42:37,42.805,6.029,CST-1368DR,4933,6184,13389,0.615,551
2022-02-03T04:45:39,42.805,6.029,CST-1368DR,4933,6184,13389,0.615,551
2022-02-03T04:48:40,42.805,6.029,CST-1368DR,4933,6182,13385,0.617,551
2022-02-03T04:51:42,42.805,6.029,CST-1368DR,4933,6183,13387,0.616,551
2022-02-03T04:54:43,42.805,6.029,CST-1368DR,4933,6184,13389,0.615,551
2022-02-03T04:57:45,42.805,6.029,CST-1368DR,4933,6183,13387,0.616,551
2022-02-03T05:00:47,42.805,6.029,CST-1368DR,4933,6184,13389,0.615,551
2022-02-03T05:03:48,42.805,6.029,CST-1368DR,4933,6184,13389,0.615,551
2022-02-03T05:06:50,42.805,6.029,CST-1368DR,4933,6181,13383,0.617,551
2022-02-03T05:09:51,42.805,6.029,CST-1368DR,4933,6184,13390,0.615,551
2022-02-03T05:12:53,42.805,6.029,CST-1368DR,4933,6182,13385,0.617,551
2022-02-03T05:15:55,42.805,6.029,CST-1368DR,4933,6185,13391,0.615,551
2022-02-03T05:18:56,42.805,6.029,CST-1368DR,4933,6182,13384,0.617,551
2022-02-03T05:21:58,42.805,6.029,CST-1368DR,4933,6181,13384,0.617,551
2022-02-03T05:24:59,42.805,6.029,CST-1368DR,4933,6183,13388,0.616,551
2022-02-03T05:28:01,42.805,6.029,CST-1368DR,4933,6182,13385,0.617,551
2022-02-03T05:31:02,42.805,6.029,CST-1368DR,4933,6186,13393,0.614,551
2022-02-03T05:34:04,42.805,6.029,CST-1368DR,4933,6185,13391,0.615,551
2022-02-03T05:37:06,42.805,6.029,CST-1368DR,4933,6185,13391,0.615,551
2022-02-03T05:40:07,42.805,6.029,CST-1368DR,4933,6185,13391,0.615,551
2022-02-03T05:43:09,42.805,6.029,CST-1368DR,4933,6183,13386,0.616,550
2022-02-03T05:46:10,42.805,6.029,CST-1368DR,4933,6185,13392,0.615,551
2022-02-03T05:49:12,42.805,6.029,CST-1368DR,4933,6184,13390,0.615,551
2022-02-03T05:52:13,42.805,6.029,CST-1368DR,4933,6183,13387,0.616,551
2022-02-03T05:55:15,42.805,6.029,CST-1368DR,4933,6182,13385,0.617,551
2022-02-03T05:58:17,42.805,6.029,CST-1368DR,4933,6184,13389,0.615,551
2022-02-03T06:01:18,42.805,6.029,CST-1368DR,4933,6183,13386,0.616,551
2022-02-03T06:04:20,42.805,6.029,CST-1368DR,4933,6185,13391,0.615,551
2022-02-03T06:07:21,42.805,6.029,CST-1368DR,4933,6184,13390,0.615,551
2022-02-03T06:10:23,42.805,6.029,CST-1368DR,4933,6184,13389,0.615,551
2022-02-03T06:13:25,42.805,6.029,CST-1368DR,4933,6183,13386,0.616,551
2022-02-03T06:16:26,42.805,6.029,CST-1368DR,4933,6184,13390,0.615,551
2022-02-03T06:19:28,42.805,6.029,CST-1368DR,4933,6184,13390,0.615,551
2022-02-03T06:22:29,42.805,6.029,CST-1368DR,4933,6185,13392,0.615,550
2022-02-03T06:25:31,42.805,6.029,CST-1368DR,4933,6184,13390,0.615,551
2022-02-03T06:28:32,42.805,6.029,CST-1368DR,4932,6183,13389,0.615,551
2022-02-03T06:31:34,42.805,6.029,CST-1368DR,4933,6186,13394,0.614,551
2022-02-03T06:34:36,42.805,6.029,CST-1368DR,4933,6185,13391,0.615,551
2022-02-03T06:37:37,42.805,6.029,CST-1368DR,4933,6185,13392,0.615,551
2022-02-03T06:40:39,42.805,6.029,CST-1368DR,4932,6186,13397,0.613,551
2022-02-03T06:43:40,42.805,6.029,CST-1368DR,4933,6185,13391,0.615,551
2022-02-03T06:46:42,42.805,6.029,CST-1368DR,4933,6186,13393,0.614,551
2022-02-03T06:49:44,42.805,6.029,CST-1368DR,4933,6186,13393,0.614,551
2022-02-03T06:52:45,42.805,6.029,CST-1368DR,4932,6187,13398,0.613,551
2022-02-03T06:55:47,42.805,6.029,CST-1368DR,4933,6188,13397,0.613,551
2022-02-03T06:58:48,42.805,6.029,CST-1368DR,4933,6187,13396,0.613,551
2022-02-03T07:01:50,42.805,6.029,CST-1368DR,4932,6187,13399,0.612,551
2022-02-03T07:04:51,42.805,6.029,CST-1368DR,4932,6185,13393,0.614,551
2022-02-03T07:07:53,42.805,6.029,CST-1368DR,4932,6186,13397,0.613,551
2022-02-03T07:10:55,42.805,6.029,CST-1368DR,4932,6187,13399,0.612,550
2022-02-03T07:13:56,42.805,6.029,CST-1368DR,4933,6188,13398,0.613,551
2022-02-03T07:16:58,42.805,6.029,CST-1368DR,4932,6187,13398,0.613,551
2022-02-03T07:19:59,42.805,6.029,CST-1368DR,4932,6186,13397,0.613,551
2022-02-03T07:23:01,42.805,6.029,CST-1368DR,4932,6187,13398,0.613,551
2022-02-03T07:26:02,42.805,6.029,CST-1368DR,4932,6188,13401,0.612,551
2022-02-03T07:29:04,42.805,6.029,CST-1368DR,4932,6187,13399,0.612,551
2022-02-03T07:32:06,42.805,6.029,CST-1368DR,4932,6188,13400,0.612,551
2022-02-03T07:35:07,42.805,6.029,CST-1368DR,4932,6187,13398,0.613,551
2022-02-03T07:38:09,42.805,6.029,CST-1368DR,4932,6187,13398,0.613,551
2022-02-03T07:41:10,42.805,6.029,CST-1368DR,4932,6186,13397,0.613,551
2022-02-03T07:44:12,42.805,6.029,CST-1368DR,4932,6188,13401,0.612,551
2022-02-03T07:47:14,42.805,6.029,CST-1368DR,4932,6188,13401,0.612,551
2022-02-03T07:50:15,42.805,6.029,CST-1368DR,4932,6188,13401,0.612,551
2022-02-03T07:53:17,42.805,6.029,CST-1368DR,4932,6188,13400,0.612,551
2022-02-03T07:56:18,42.805,6.029,CST-1368DR,4932,6188,13400,0.612,551
2022-02-03T07:59:20,42.805,6.029,CST-1368DR,4932,6185,13395,0.614,551
2022-02-03T08:02:21,42.805,6.029,CST-1368DR,4932,6188,13401,0.612,551
2022-02-03T08:05:23,42.805,6.029,CST-1368DR,4933,6189,13400,0.612,551
2022-02-03T08:08:25,42.805,6.029,CST-1368DR,4932,6189,13402,0.612,551
2022-02-03T08:11:26,42.805,6.029,CST-1368DR,4932,6188,13401,0.612,551
2022-02-03T08:14:28,42.805,6.029,CST-1368DR,4932,6188,13401,0.612,551
2022-02-03T08:17:29,42.805,6.029,CST-1368DR,4932,6189,13404,0.611,551
2022-02-03T08:20:31,42.805,6.029,CST-1368DR,4932,6189,13404,0.611,550
2022-02-03T08:23:32,42.805,6.029,CST-1368DR,4932,6186,13395,0.614,551
2022-02-03T08:26:34,42.805,6.029,CST-1368DR,4932,6187,13399,0.612,551
2022-02-03T08:29:36,42.805,6.029,CST-1368DR,4933,6190,13403,0.611,551
2022-02-03T08:32:37,42.805,6.029,CST-1368DR,4933,6190,13402,0.612,551
2022-02-03T08:35:39,42.805,6.029,CST-1368DR,4932,6188,13401,0.612,551
2022-02-03T08:38:40,42.805,6.029,CST-1368DR,4932,6190,13404,0.611,551
2022-02-03T08:41:42,42.805,6.029,CST-1368DR,4932,6189,13402,0.612,551
2022-02-03T08:44:44,42.805,6.029,CST-1368DR,4932,6190,13404,0.611,551
2022-02-03T08:47:45,42.805,6.029,CST-1368DR,4932,6190,13405,0.611,551
2022-02-03T08:50:47,42.805,6.029,CST-1368DR,4932,6189,13402,0.612,551
2022-02-03T08:53:48,42.805,6.029,CST-1368DR,4932,6188,13401,0.612,551
2022-02-03T08:56:50,42.805,6.029,CST-1368DR,4932,6188,13401,0.612,551
2022-02-03T08:59:51,42.805,6.029,CST-1368DR,4932,6189,13402,0.612,551
2022-02-03T09:02:53,42.805,6.029,CST-1368DR,4932,6189,13404,0.611,551
2022-02-03T09:05:55,42.805,6.029,CST-1368DR,4932,6189,13404,0.611,551
2022-02-03T09:08:56,42.805,6.029,CST-1368DR,4932,6187,13399,0.612,551
2022-02-03T09:11:58,42.805,6.029,CST-1368DR,4932,6188,13400,0.612,551
2022-02-03T09:14:59,42.805,6.029,CST-1368DR,4932,6188,13401,0.612,551
2022-02-03T09:18:01,42.805,6.029,CST-1368DR,4932,6190,13405,0.611,551
2022-02-03T09:21:03,42.805,6.029,CST-1368DR,4932,6190,13404,0.611,551
2022-02-03T09:24:04,42.805,6.029,CST-1368DR,4932,6190,13404,0.611,551
2022-02-03T09:27:06,42.805,6.029,CST-1368DR,4932,6189,13404,0.611,550
2022-02-03T09:30:07,42.805,6.029,CST-1368DR,4932,6190,13405,0.611,551
2022-02-03T09:33:09,42.805,6.029,CST-1368DR,4932,6191,13407,0.610,551
2022-02-03T09:36:10,42.805,6.029,CST-1368DR,4932,6190,13406,0.610,551
2022-02-03T09:39:12,42.805,6.029,CST-1368DR,4932,6190,13405,0.611,551
2022-02-03T09:42:14,42.805,6.029,CST-1368DR,4932,6191,13406,0.610,551
2022-02-03T09:45:15,42.805,6.029,CST-1368DR,4932,6191,13407,0.610,551
2022-02-03T09:48:17,42.805,6.029,CST-1368DR,4932,6190,13405,0.611,551
2022-02-03T09:51:18,42.805,6.029,CST-1368DR,4932,6191,13407,0.610,551
2022-02-03T09:54:20,42.805,6.029,CST-1368DR,4932,6189,13404,0.611,551
2022-02-03T09:57:21,42.805,6.029,CST-1368DR,4932,6190,13405,0.611,551
2022-02-03T10:00:23,42.805,6.029,CST-1368DR,4932,6191,13407,0.610,551
2022-02-03T10:03:25,42.805,6.029,CST-1368DR,4932,6191,13406,0.610,551
2022-02-03T10:06:26,42.805,6.029,CST-1368DR,4932,6191,13408,0.610,551
2022-02-03T10:09:28,42.805,6.029,CST-1368DR,4932,6191,13407,0.610,551
2022-02-03T10:12:29,42.805,6.029,CST-1368DR,4932,6191,13407,0.610,551
2022-02-03T10:15:31,42.805,6.029,CST-1368DR,4932,6191,13407,0.610,551
2022-02-03T10:18:33,42.805,6.029,CST-1368DR,4932,6191,13407,0.610,551
2022-02-03T10:21:34,42.805,6.029,CST-1368DR,4932,6191,13407,0.610,551
2022-02-03T10:24:36,42.805,6.029,CST-1368DR,4932,6192,13410,0.609,551
2022-02-03T10:27:37,42.805,6.029,CST-1368DR,4932,6192,13410,0.609,551
2022-02-03T10:30:39,42.805,6.029,CST-1368DR,4932,6192,13408,0.610,551
2022-02-03T10:33:40,42.805,6.029,CST-1368DR,4932,6191,13408,0.610,551
2022-02-03T10:36:42,42.805,6.029,CST-1368DR,4932,6191,13408,0.610,551
2022-02-03T10:39:44,42.805,6.029,CST-1368DR,4932,6191,13406,0.610,551
2022-02-03T10:42:45,42.805,6.029,CST-1368DR,4932,6190,13406,0.610,551
2022-02-03T10:45:47,42.805,6.029,CST-1368DR,4932,6192,13409,0.609,551
2022-02-03T10:48:48,42.805,6.029,CST-1368DR,4932,6191,13407,0.610,551
2022-02-03T10:51:50,42.805,6.029,CST-1368DR,4932,6191,13407,0.610,550
2022-02-03T10:54:52,42.805,6.029,CST-1368DR,4932,6192,13410,0.609,551
2022-02-03T10:57:53,42.805,6.029,CST-1368DR,4932,6193,13411,0.609,551
2022-02-03T11:00:55,42.805,6.029,CST-1368DR,4932,6192,13410,0.609,551
2022-02-03T11:03:56,42.805,6.029,CST-1368DR,4932,6192,13410,0.609,551
2022-02-03T11:06:58,42.805,6.029,CST-1368DR,4932,6193,13411,0.609,551
2022-02-03T11:09:59,42.805,6.029,CST-1368DR,4932,6192,13408,0.610,551
2022-02-03T11:13:01,42.805,6.029,CST-1368DR,4932,6191,13407,0.610,551
2022-02-03T11:16:03,42.805,6.029,CST-1368DR,4932,6191,13407,0.610,551
2022-02-03T11:19:04,42.805,6.029,CST-1368DR,4932,6192,13409,0.609,551
2022-02-03T11:22:06,42.805,6.029,CST-1368DR,4932,6192,13408,0.610,551
2022-02-03T11:25:07,42.805,6.029,CST-1368DR,4932,6193,13412,0.609,551
2022-02-03T11:28:09,42.805,6.029,CST-1368DR,4932,6193,13411,0.609,551
2022-02-03T11:31:10,42.805,6.029,CST-1368DR,4932,6192,13410,0.609,551
2022-02-03T11:34:12,42.805,6.029,CST-1368DR,4932,6192,13408,0.610,551
2022-02-03T11:37:14,42.805,6.029,CST-1368DR,4932,6192,13410,0.609,551
2022-02-03T11:40:15,42.805,6.029,CST-1368DR,4932,6192,13409,0.609,551
2022-02-03T11:43:17,42.805,6.029,CST-1368DR,4932,6191,13406,0.610,551
2022-02-03T11:46:18,42.805,6.029,CST-1368DR,4932,6191,13406,0.610,551
2022-02-03T11:49:20,42.805,6.029,CST-1368DR,4932,6190,13406,0.610,551
2022-02-03T11:52:22,42.805,6.029,CST-1368DR,4932,6190,13406,0.610,551
2022-02-03T11:55:23,42.805,6.029,CST-1368DR,4932,6191,13407,0.610,551
2022-02-03T11:58:25,42.805,6.029,CST-1368DR,4932,6190,13406,0.610,551
2022-02-03T12:01:26,42.805,6.029,CST-1368DR,4932,6190,13406,0.610,551
2022-02-03T12:04:28,42.805,6.029,CST-1368DR,4932,6188,13400,0.612,551
2022-02-03T12:07:29,42.805,6.029,CST-1368DR,4932,6189,13402,0.612,551
2022-02-03T12:10:31,42.805,6.029,CST-1368DR,4932,6188,13400,0.612,551
2022-02-03T12:13:33,42.805,6.029,CST-1368DR,4932,6189,13404,0.611,551
2022-02-03T12:16:34,42.805,6.029,CST-1368DR,4932,6189,13404,0.611,551
2022-02-03T12:19:36,42.805,6.029,CST-1368DR,4932,6189,13402,0.612,551
2022-02-03T12:22:37,42.805,6.029,CST-1368DR,4932,6187,13399,0.612,551
2022-02-03T12:25:39,42.805,6.029,CST-1368DR,4932,6187,13398,0.613,551
2022-02-03T12:28:41,42.805,6.029,CST-1368DR,4932,6181,13385,0.617,551
2022-02-03T12:31:42,42.805,6.029,CST-1368DR,4932,6188,13401,0.612,551
2022-02-03T12:34:44,42.805,6.029,CST-1368DR,4932,6188,13400,0.612,551
2022-02-03T12:37:45,42.805,6.029,CST-1368DR,4932,6187,13399,0.612,551
2022-02-03T12:40:47,42.805,6.029,CST-1368DR,4932,6189,13402,0.612,551
2022-02-03T12:43:48,42.805,6.029,CST-1368DR,4932,6187,13398,0.613,551
2022-02-03T12:46:50,42.805,6.029,CST-1368DR,4932,6189,13402,0.612,551
2022-02-03T12:49:52,42.805,6.029,CST-1368DR,4932,6188,13401,0.612,551
2022-02-03T12:52:53,42.805,6.029,CST-1368DR,4932,6188,13400,0.612,551
2022-02-03T12:55:55,42.805,6.029,CST-1368DR,4932,6190,13404,0.611,551
2022-02-03T12:58:56,42.805,6.029,CST-1368DR,4932,6190,13406,0.610,551
2022-02-03T13:01:58,42.805,6.029,CST-1368DR,4932,6191,13407,0.610,551
2022-02-03T13:04:59,42.805,6.029,CST-1368DR,4932,6191,13407,0.610,551
2022-02-03T13:08:01,42.805,6.029,CST-1368DR,4932,6191,13408,0.610,551
2022-02-03T13:11:03,42.805,6.029,CST-1368DR,4932,6189,13402,0.612,551
2022-02-03T13:14:04,42.805,6.029,CST-1368DR,4932,6192,13410,0.609,551
2022-02-03T13:17:06,42.805,6.029,CST-1368DR,4932,6192,13410,0.609,551
2022-02-03T13:20:07,42.805,6.029,CST-1368DR,4932,6193,13411,0.609,551
2022-02-03T13:23:09,42.805,6.029,CST-1368DR,4932,6193,13411,0.609,551
2022-02-03T13:26:11,42.805,6.029,CST-1368DR,4932,6192,13410,0.609,551
2022-02-03T13:29:12,42.805,6.029,CST-1368DR,4932,6193,13411,0.609,551
2022-02-03T13:32:14,42.805,6.029,CST-1368DR,4932,6191,13407,0.610,551
2022-02-03T13:35:15,42.805,6.029,CST-1368DR,4932,6192,13410,0.609,551
2022-02-03T13:38:17,42.805,6.029,CST-1368DR,4932,6194,13413,0.608,551
2022-02-03T13:41:18,42.805,6.029,CST-1368DR,4932,6194,13414,0.608,551
2022-02-03T13:44:20,42.805,6.029,CST-1368DR,4932,6194,13414,0.608,551
2022-02-03T13:47:22,42.805,6.029,CST-1368DR,4932,6194,13414,0.608,551
2022-02-03T13:50:23,42.805,6.029,CST-1368DR,4932,6195,13415,0.608,551
2022-02-03T13:53:25,42.805,6.029,CST-1368DR,4932,6195,13415,0.608,551
2022-02-03T13:56:26,42.805,6.029,CST-1368DR,4932,6193,13411,0.609,551
2022-02-03T13:59:28,42.805,6.029,CST-1368DR,4932,6193,13412,0.609,551
2022-02-03T14:02:30,42.805,6.029,CST-1368DR,4932,6194,13413,0.608,551
2022-02-03T14:05:31,42.805,6.029,CST-1368DR,4932,6195,13416,0.607,551
2022-02-03T14:08:33,42.805,6.029,CST-1368DR,4932,6194,13414,0.608,551
2022-02-03T14:11:34,42.805,6.029,CST-1368DR,4932,6194,13414,0.608,551
2022-02-03T14:14:36,42.805,6.029,CST-1368DR,4932,6195,13415,0.608,551
2022-02-03T14:17:37,42.805,6.029,CST-1368DR,4932,6192,13410,0.609,551
2022-02-03T14:20:39,42.805,6.029,CST-1368DR,4932,6195,13415,0.608,551
2022-02-03T14:23:41,42.805,6.029,CST-1368DR,4932,6195,13415,0.608,551
2022-02-03T14:26:42,42.805,6.029,CST-1368DR,4932,6194,13414,0.608,551
2022-02-03T14:29:44,42.805,6.029,CST-1368DR,4932,6195,13415,0.608,551
2022-02-03T14:32:45,42.805,6.029,CST-1368DR,4932,6195,13415,0.608,551
2022-02-03T14:35:47,42.805,6.029,CST-1368DR,4932,6189,13404,0.611,551
2022-02-03T14:38:48,42.805,6.029,CST-1368DR,4932,6195,13415,0.608,551
2022-02-03T14:41:50,42.805,6.029,CST-1368DR,4931,6193,13415,0.608,551
2022-02-03T14:44:52,42.805,6.029,CST-1368DR,4932,6194,13414,0.608,551
2022-02-03T14:47:53,42.805,6.029,CST-1368DR,4932,6195,13416,0.607,551
2022-02-03T14:50:55,42.805,6.029,CST-1368DR,4932,6195,13415,0.608,551
2022-02-03T14:53:56,42.805,6.029,CST-1368DR,4931,6194,13416,0.607,551
2022-02-03T14:56:58,42.805,6.029,CST-1368DR,4931,6195,13418,0.607,551
2022-02-03T15:00:00,42.805,6.029,CST-1368DR,4931,6194,13416,0.607,551
2022-02-03T15:03:01,42.805,6.029,CST-1368DR,4931,6194,13416,0.607,551
2022-02-03T15:06:03,42.805,6.029,CST-1368DR,4932,6194,13414,0.608,551
2022-02-03T15:09:04,42.805,6.029,CST-1368DR,4932,6194,13414,0.608,551
2022-02-03T15:12:06,42.805,6.029,CST-1368DR,4932,6195,13415,0.608,551
2022-02-03T15:15:07,42.805,6.029,CST-1368DR,4932,6195,13415,0.608,551
2022-02-03T15:18:09,42.805,6.029,CST-1368DR,4931,6195,13419,0.606,551
2022-02-03T15:21:11,42.805,6.029,CST-1368DR,4932,6195,13415,0.608,551
2022-02-03T15:24:12,42.805,6.029,CST-1368DR,4931,6194,13417,0.607,551
2022-02-03T15:27:14,42.805,6.029,CST-1368DR,4931,6193,13414,0.608,551
2022-02-03T15:30:15,42.805,6.029,CST-1368DR,4931,6194,13415,0.608,551
2022-02-03T15:33:17,42.805,6.029,CST-1368DR,4931,6194,13417,0.607,551
2022-02-03T15:36:18,42.805,6.029,CST-1368DR,4931,6195,13418,0.607,551
2022-02-03T15:39:20,42.805,6.029,CST-1368DR,4931,6194,13417,0.607,551
2022-02-03T15:42:22,42.805,6.029,CST-1368DR,4931,6194,13416,0.607,551
2022-02-03T15:45:23,42.805,6.029,CST-1368DR,4931,6194,13417,0.607,551
2022-02-03T15:48:25,42.805,6.029,CST-1368DR,4931,6194,13417,0.607,551
2022-02-03T15:51:26,42.805,6.029,CST-1368DR,4932,6195,13415,0.608,551
2022-02-03T15:54:28,42.805,6.029,CST-1368DR,4931,6194,13415,0.608,551
2022-02-03T15:57:30,42.805,6.029,CST-1368DR,4931,6194,13416,0.607,551
2022-02-03T16:00:31,42.805,6.029,CST-1368DR,4931,6194,13417,0.607,551
2022-02-03T16:03:33,42.805,6.029,CST-1368DR,4931,6194,13416,0.607,551
2022-02-03T16:06:34,42.805,6.029,CST-1368DR,4931,6193,13415,0.608,551
2022-02-03T16:09:36,42.805,6.029,CST-1368DR,4931,6194,13417,0.607,551
2022-02-03T16:12:37,42.805,6.029,CST-1368DR,4931,6194,13416,0.607,551
2022-02-03T16:15:39,42.805,6.029,CST-1368DR,4931,6194,13416,0.607,551
2022-02-03T16:18:41,42.805,6.029,CST-1368DR,4931,6194,13416,0.607,551
2022-02-03T16:21:42,42.805,6.029,CST-1368DR,4931,6194,13416,0.607,551
2022-02-03T16:24:44,42.805,6.029,CST-1368DR,4931,6194,13416,0.607,551
2022-02-03T16:27:45,42.805,6.029,CST-1368DR,4931,6194,13415,0.608,551
2022-02-03T16:30:47,42.805,6.029,CST-1368DR,4931,6194,13416,0.607,551
2022-02-03T16:33:49,42.805,6.029,CST-1368DR,4931,6195,13418,0.607,551
2022-02-03T16:36:50,42.805,6.029,CST-1368DR,4931,6194,13416,0.607,551
2022-02-03T16:39:52,42.805,6.029,CST-1368DR,4931,6193,13414,0.608,551
2022-02-03T16:42:53,42.805,6.029,CST-1368DR,4931,6194,13416,0.607,551
2022-02-03T16:45:55,42.805,6.029,CST-1368DR,4931,6193,13414,0.608,551
2022-02-03T16:48:56,42.805,6.029,CST-1368DR,4931,6194,13417,0.607,551
2022-02-03T16:51:58,42.805,6.029,CST-1368DR,4931,6195,13418,0.607,551